Weather History for KSUN - April, 2014

Change the Weather History Date:

Tuesday, April 1, 2014

  Actual Average Record
Temperature  
Mean Temperature 32 °F -  
Max Temperature 35 °F 48 °F 59 °F (2002)
Min Temperature 30 °F 26 °F 10 °F (2008)
Degree Days  
Heating Degree Days 32    
Moisture  
Dew Point 30 °F    
Average Humidity 91    
Maximum Humidity 100    
Minimum Humidity 70    
Precipitation  
Precipitation 0.00 in - - ()
Sea Level Pressure  
Sea Level Pressure 29.69 in    
Wind  
Wind Speed 4 mph (NNW)    
Max Wind Speed 14 mph    
Max Gust Speed -    
Visibility 6 miles    
Events Snow    
Averages and records for this station are not official NWS values.
T = Trace of Precipitation, MM = Missing Value Source: NWS Daily Summary

Daily Weather History Graph

Daily Weather History Graph

Search for Another Location

Airport or City:

Trip Planner

Search our weather history database for the weather conditions in past years. The results will help you decide how hot, cold, wet, or windy it might be!

Date:

Astronomy

Apr. 01, 2014 Rise Set
Actual Time 7:18 AM MDT 8:03 PM MDT
Civil Twilight 6:49 AM MDT 8:32 PM MDT
Nautical Twilight 6:15 AM MDT 9:07 PM MDT
Astronomical Twilight 5:39 AM MDT 9:43 PM MDT
Moon 8:20 AM MDT (4/1) 10:35 PM MDT (4/1)
Length of Visible Light 13h 43m
Length of Day
12h 45m
Waxing Crescent, 5% of the Moon is Illuminated
Apr 1
Waxing Crescent
Apr 7
First Quarter
Apr 15
Full
Apr 22
Last Quarter
Apr 29
New

Hourly Weather History & Observations

Time (MDT) Temp. Windchill Dew Point Humidity Pressure Visibility Wind Dir Wind Speed Gust Speed Precip Events Conditions
12:15 AM 32.0 °F - 32.0 °F 100% 29.78 in 10.0 mi Calm Calm - N/A   Mostly Cloudy
12:35 AM 32.0 °F - 32.0 °F 100% 29.77 in 10.0 mi Calm Calm - N/A   Mostly Cloudy
12:55 AM 32.0 °F - 32.0 °F 100% 29.76 in 10.0 mi Calm Calm - N/A   Overcast
1:15 AM 33.8 °F 30.8 °F 32.0 °F 93% 29.75 in 10.0 mi NW 3.5 mph - N/A   Overcast
1:35 AM 33.8 °F 30.8 °F 32.0 °F 93% 29.74 in 10.0 mi NNE 3.5 mph - N/A   Overcast
1:55 AM 33.8 °F 30.8 °F 32.0 °F 93% 29.73 in 10.0 mi WNW 3.5 mph - N/A   Overcast
2:15 AM 33.8 °F 28.6 °F 30.2 °F 87% 29.73 in 10.0 mi WNW 5.8 mph - N/A   Overcast
2:35 AM 33.8 °F - 30.2 °F 87% 29.72 in 10.0 mi Calm Calm - N/A   Overcast
2:55 AM 33.8 °F - 30.2 °F 87% 29.72 in 10.0 mi Calm Calm - N/A   Overcast
3:15 AM 32.0 °F - 30.2 °F 93% 29.71 in 10.0 mi Calm Calm - N/A   Mostly Cloudy
3:35 AM 32.0 °F 28.7 °F 30.2 °F 93% 29.70 in 10.0 mi West 3.5 mph - N/A   Scattered Clouds
3:55 AM 32.0 °F 26.4 °F 28.4 °F 87% 29.69 in 10.0 mi WNW 5.8 mph - N/A   Scattered Clouds
4:15 AM 32.0 °F 28.7 °F 30.2 °F 93% 29.68 in 10.0 mi NW 3.5 mph - N/A   Scattered Clouds
4:35 AM 32.0 °F 27.5 °F 30.2 °F 93% 29.67 in 10.0 mi NW 4.6 mph - N/A   Clear
4:55 AM 32.0 °F 26.4 °F 28.4 °F 87% 29.67 in 10.0 mi WNW 5.8 mph - N/A   Clear
5:15 AM 32.0 °F - 28.4 °F 87% 29.66 in 10.0 mi Calm Calm - N/A   Clear
5:35 AM 32.0 °F 26.4 °F 28.4 °F 87% 29.65 in 10.0 mi NW 5.8 mph - N/A   Clear
5:55 AM 32.0 °F 24.2 °F 28.4 °F 87% 29.65 in 10.0 mi NW 9.2 mph - N/A   Clear
6:15 AM 32.0 °F 23.6 °F 28.4 °F 87% 29.64 in 10.0 mi NW 10.4 mph - N/A   Clear
6:35 AM 32.0 °F 27.5 °F 26.6 °F 80% 29.64 in 10.0 mi NNW 4.6 mph - N/A   Scattered Clouds
6:50 AM 32.0 °F 27.5 °F 26.6 °F 80% 29.64 in 10.0 mi NW 4.6 mph - N/A   Overcast
7:47 AM 32.0 °F - 24.8 °F 75% 29.64 in 10.0 mi Calm Calm - N/A   Overcast
8:47 AM 33.8 °F 28.6 °F 24.8 °F 70% 29.64 in 2.0 mi WNW 5.8 mph - N/A Snow Light Snow
9:10 AM 33.8 °F - 28.4 °F 81% 29.65 in 1.0 mi Calm Calm - N/A Snow Light Snow
9:50 AM 32.0 °F 27.5 °F 30.2 °F 93% 29.65 in 1.0 mi NNW 4.6 mph - N/A Snow Light Snow
10:55 AM 33.8 °F 29.6 °F 30.2 °F 87% 29.66 in 3.0 mi WNW 4.6 mph - N/A Snow Light Snow
11:50 AM 35.6 °F - 30.2 °F 81% 29.65 in 3.0 mi Calm Calm - N/A Snow Light Snow
12:47 PM 35.6 °F 31.7 °F 33.8 °F 93% 29.66 in 3.0 mi SE 4.6 mph - N/A Snow Light Snow
1:47 PM 35.6 °F - 33.8 °F 93% 29.67 in 2.0 mi Calm Calm - N/A Snow Light Snow
2:55 PM 33.8 °F 25.3 °F 33.8 °F 100% 29.68 in 2.0 mi ESE 11.5 mph - N/A Snow Light Snow
3:55 PM 33.8 °F 24.3 °F 33.8 °F 100% 29.67 in 1.0 mi ESE 13.8 mph - N/A Snow Light Snow
4:55 PM 32.0 °F 23.0 °F 32.0 °F 100% 29.68 in 0.8 mi ESE 11.5 mph - N/A Snow Light Snow
5:47 PM 32.0 °F 23.0 °F 30.2 °F 93% 29.69 in 2.0 mi ESE 11.5 mph - N/A Snow Light Snow
6:10 PM 32.0 °F 22.1 °F 30.2 °F 93% 29.69 in 1.0 mi ESE 13.8 mph - N/A Snow Light Snow
6:55 PM 32.0 °F 23.0 °F 32.0 °F 100% 29.70 in 2.0 mi ESE 11.5 mph - N/A Snow Light Snow
7:48 PM 32.0 °F 22.1 °F 30.2 °F 93% 29.70 in 1.5 mi ESE 13.8 mph - N/A Snow Light Snow
8:48 PM 30.2 °F 20.8 °F 30.2 °F 100% 29.70 in 3.0 mi ESE 11.5 mph - N/A Snow Light Snow
9:47 PM 30.2 °F 20.8 °F 28.4 °F 93% 29.71 in 3.0 mi ESE 11.5 mph - N/A Snow Light Snow
10:50 PM 30.2 °F 20.8 °F 30.2 °F 100% 29.72 in 3.0 mi ESE 11.5 mph - N/A Snow Light Snow
11:15 PM 30.2 °F 20.8 °F 30.2 °F 100% 29.72 in 1.8 mi SE 11.5 mph - N/A Snow Light Snow
11:35 PM 30.2 °F 20.8 °F 30.2 °F 100% 29.72 in 2.5 mi SE 11.5 mph - N/A Snow Light Snow